Welcome to the New NWS' Forecast!
Most changes are behind the scenes, but click here for differences you might notice.
Latest weather observations around

El Dorado, South Arkansas Regional at Goodwin Field Airport (KELD)

Using English Units (Switch to International System of Units)
Date/ Time (CDT) Wind (mph) Vis. (mi) Weather Sky Cond. Temp (°F) Rel. Humidity Wind Chill (°F) Heat Index (°F) Pressure Precip. (in)
Air Dwpt 6 hour Altimeter (inHg) Sea level (inHg) 1 hr 3 hr 6 hr
Max Min
May 24 21:53 W 6 10 Clear CLR 56 52     87%     29.73 29.72      
May 24 20:53 Calm 10 Clear CLR 58 54     87%     29.72 29.71      
May 24 19:53 W 6 10 Clear CLR 64 50     60%     29.71 29.7      
May 24 18:53 W 9 10 Clear CLR 68 48     49%     29.7 29.7      
May 24 17:53 WNW 15 10 Cloudy BKN060 OVC085 69 47     45%     29.7 29.7      
May 24 16:53 WNW 10 10 Cloudy FEW055 SCT070 OVC085 68 48     49%     29.7 29.69      
May 24 15:53 W 15 10 Cloudy SCT055 BKN070 OVC085 69 49     49%     29.71 29.7      
May 24 13:53 WNW 13 10 Mostly Cloudy FEW048 BKN080 66 50     56%     29.72 29.71      
May 24 12:53 WNW 10 10 Mostly Cloudy FEW042 SCT050 BKN075 66 50     56%     29.72 29.72      
May 24 08:53 WNW 7 10 Clear CLR 61 54     78%     29.72 29.71      
May 24 07:53 W 8 10 Clear CLR 58 55     90%     29.72 29.71      
May 24 06:53 W 6 10 Clear CLR 56 54     93%     29.71 29.7     0
May 24 05:53 WSW 7 10 Clear CLR 56 55     97%     29.7 29.7      
May 24 04:53 WSW 7 10 Clear CLR 56 55     97%     29.7 29.69      
May 24 03:53 WSW 3 10 Partly Cloudy FEW060 SCT080 56 56     100%     29.71 29.7   0  
May 24 02:53 3 10 Cloudy FEW034 BKN060 OVC075 57 56     96%     29.74 29.73 0    
May 24 02:14 W 6 10 Light Rain FEW008 BKN028 OVC090 57 56     96%     29.76   0    
May 24 01:53 NNE 8 7 Light Rain OVC080 57 56     96%     29.74 29.73 0    
May 24 00:53 W 8 5 Rain and Fog/Mist OVC075 58 57     97%     29.79 29.78 0   0
May 24 00:01 WNW 15 3 Heavy Rain and Fog/Mist SCT012 BKN046 OVC060 59 57     93%     29.78   0    
May 23 23:53 WNW 18 4 Rain and Fog/Mist SCT009 BKN015 OVC047 59 58     96%     29.78 29.77 0    
May 23 23:31 W 10 5 Light Rain and Fog/Mist SCT007 BKN011 OVC036 62 61     96%     29.76   0    
May 23 23:21 WSW 8 4 Rain and Fog/Mist BKN009 BKN036 OVC049 62 61     96%     29.76   0    
May 23 23:03 7 4 Rain and Fog/Mist FEW009 BKN050 OVC060 62 61     96%     29.76   0    
May 23 22:53 SW 6 9 Light Rain FEW043 OVC055 62 61     96%     29.76 29.75 0    
May 23 21:53 WSW 7 9 Cloudy FEW033 BKN047 OVC080 62 62     100%     29.74 29.73 0 0  
May 23 20:53 WNW 5 10 Light Rain OVC100 63 62     97%     29.76 29.75 0    
May 23 19:53 WSW 6 5 Rain and Fog/Mist OVC090 64 61     90%     29.75 29.74 0    
May 23 19:13 W 7 6 Light Rain and Fog/Mist OVC095 66 62     87%     29.75   0    
May 23 18:53 WSW 7 4 Rain and Fog/Mist OVC095 68 64     87%     29.74 29.74 0   0
May 23 18:39 WNW 5 9 Light Rain OVC100 69 65     87%     29.74   0    
May 23 17:53 W 3 10 Mostly Cloudy BKN100 72 63     73%   72 29.73 29.72      
May 23 16:53 W 7 10 Mostly Cloudy BKN100 76 62     62%   76 29.75 29.74      
May 23 15:53 WNW 9 10 Mostly Cloudy BKN037 BKN050 BKN065 76 62     62%   76 29.77 29.76      
May 23 14:53 W 8 10 Mostly Cloudy BKN039 BKN055 75 61     62%   75 29.78 29.78      
May 23 13:53 NW 8 10 Partly Cloudy SCT048 75 60     60%   75 29.8 29.79      
May 23 12:53 W 10 10 Mostly Cloudy BKN035 BKN120 75 60     60%   75 29.82 29.81      
May 23 11:53 NW 8 10 Mostly Cloudy FEW027 BKN033 72 61     68%   72 29.84 29.83      
May 23 10:53 3 10 Clear CLR 70 62     76%     29.84 29.83      
May 23 09:53 WSW 6 10 Clear CLR 66 59     78%     29.85 29.84      
May 23 08:53 NW 8 10 Partly Cloudy SCT008 64 60     87%     29.87 29.87      
May 23 07:53 WNW 7 10 Mostly Clear FEW002 61 61     100%     29.87 29.86      
May 23 07:44 WNW 9 10 Partly Cloudy SCT002 61 60     97%     29.87        
May 23 07:37 WNW 7 10 Mostly Cloudy BKN002 61 60     97%     29.87        
May 23 07:11 WNW 3 7 Mostly Cloudy BKN001 60 60     100%     29.86        
May 23 07:03 WNW 5 2 Fog/Mist OVC001 60 60     100%     29.86        
May 23 06:53 Calm 0.5 Fog VV001 59 59     100%     29.85 29.84      
May 23 06:42 Calm 0.25 Fog VV001 59 59     100%     29.84        
May 23 06:33 W 3 0.5 Fog VV001 59 59     100%     29.84        
May 23 06:24 Calm 1.5 Fog/Mist BKN001 59 59     100%     29.83        
May 23 06:21 SSW 3 4 Fog/Mist SCT001 59 59     100%     29.83        
May 23 05:53 Calm 10 Clear CLR 60 59     96%     29.83 29.83      
May 23 05:11 Calm 10 Partly Cloudy SCT020 61 60     97%     29.84        
May 23 04:53 Calm 10 Cloudy OVC020 61 61     100%     29.84 29.83      
May 23 03:53 NW 3 10 Cloudy FEW018 BKN026 OVC036 61 61     100%     29.88 29.87      
May 23 02:53 Calm 10 Cloudy OVC037 62 61     96%     29.87 29.87      
May 23 02:30 N 3 10 Cloudy SCT017 OVC040 62 61     96%     29.88        
May 23 01:53 NW 3 10 Cloudy BKN018 OVC030 62 61     96%     29.9 29.89      
May 23 00:53 N 3 10 Cloudy BKN019 OVC028 62 60     93%     29.91 29.91      
May 22 23:53 N 5 10 Cloudy OVC018 62 61     96%     29.93 29.92      
May 22 22:53 N 3 10 Cloudy OVC019 62 60     93%     29.93 29.93      
May 22 21:53 N 5 10 Cloudy OVC020 62 61     96%     29.95 29.94      
May 22 20:53 N 5 10 Cloudy OVC023 62 61     96%     29.95 29.94      
May 22 19:53 NNW 3 10 Cloudy FEW010 BKN028 OVC037 63 61     93%     29.97 29.96      
May 22 19:49 NNW 3 10 Cloudy FEW010 BKN028 OVC037 63 61     94%     29.97        
May 22 18:53 N 3 10 Cloudy FEW009 BKN035 OVC049 64 61     90%     29.96 29.96     0
May 22 18:48 Calm 10 Cloudy SCT009 OVC035 64 61     88%     29.96        
May 22 18:14 5 10 Cloudy BKN008 OVC039 64 61     90%     29.97        
May 22 17:53 NE 5 10 Cloudy SCT008 OVC039 63 61     93%     29.97 29.96      
May 22 17:11 NNE 5 10 Cloudy FEW006 BKN050 OVC070 63 61     93%     29.98        
May 22 16:53 NE 8 10 Cloudy BKN045 OVC055 62 61     96%     29.98 29.98 0    
May 22 15:53 ENE 7 10 Light Rain BKN110 61 60     97%     30 29.99 0 0  
May 22 14:53 ENE 7 8 Light Rain FEW007 BKN055 OVC110 61 60     97%     30.04 30.03 0    
May 22 14:12 Calm 8 Light Rain FEW008 BKN065 OVC110 61 59     93%     30.07   0    
May 22 13:53 ENE 3 6 Rain and Fog/Mist BKN100 BKN120 62 60     93%     30.06 30.05 0    
May 22 12:53 E 6 9 Light Rain BKN110 62 60     93%     30.08 30.07 0   0
May 22 11:53 NNE 6 10 Light Rain BKN120 62 59     90%     30.08 30.08 0    
May 22 10:53 Calm 10 Light Rain BKN100 OVC120 62 58     86%     30.1 30.09 0    
May 22 04:53 NNW 9 10 Mostly Cloudy BKN120 62 60     93%     30.09   0    
May 22 03:53 WSW 9 10 Light Rain OVC110 62 61     96%     30.16   0 0  
May 22 02:53 Calm 10 Mostly Cloudy BKN100 62 61     96%     30.1 30.1      
May 22 01:53 Calm 10 Clear CLR 61 61     100%     30.11 30.11      
May 22 00:53 Calm 10 Clear CLR 61 61     100%     30.1 30.1      
May 21 11:57 N 9 2 Thunderstorms and Heavy Rain and Fog/Mist OVC033 56 56     100%     30.2   0    
May 21 11:38 WSW 7 1 Thunderstorms and Heavy Rain and Fog/Mist FEW007 FEW014 OVC019 58 57     97%         1    
May 21 11:33 SW 9 0.5 Thunderstorms and Heavy Rain and Fog FEW007 OVC013 58 57     97%         1    
May 21 11:24   1.75 Thunderstorms and Heavy Rain and Fog/Mist SCT006 BKN020 OVC040 59 58     96%         0    
May 21 11:22   3 Thunderstorms and Heavy Rain and Fog/Mist SCT006 BKN020 OVC040 59 58     96%         0    
May 21 11:14 NW 13 10 Thunderstorms and Rain FEW007 BKN012 OVC040 61 59     93%     30.17   0    
May 21 10:53 WNW 10 10 Thunderstorms SCT029 SCT038 OVC070 63 59     87%     30.17 30.16 0    
May 21 10:39 ENE 8 10 Cloudy FEW026 SCT048 OVC065 63 58     84%     30.13   0    
May 21 09:53 NE 9 10 Light Rain SCT042 BKN049 OVC060 63 57     81%     30.12 30.11 0 0  
May 21 09:27 NNE 14 10 Cloudy BKN041 OVC055 61 54     78%     30.14   0    
May 21 08:53 NNW 9 10 Light Rain FEW009 OVC050 65 63     93%     30.13 30.12 0    
May 21 08:31 N 10 10 Cloudy OVC050 66 63     90%     30.12        
May 21 07:53 N 6 10 Mostly Cloudy FEW048 SCT060 BKN090 66 63     90%     30.11 30.1      
May 21 06:53 N 7 10 Cloudy FEW021 BKN042 OVC050 65 62     90%     30.1 30.09     0
May 21 06:36 N 7 10 Cloudy FEW007 BKN042 OVC050 65 64     97%     30.1        
May 21 06:09 N 8 10 Cloudy SCT029 BKN043 OVC110 66 64     93%     30.08        
May 21 06:01 N 7 10 Cloudy BKN029 BKN049 OVC120 66 64     93%     30.08        
May 21 05:53 N 6 10 Cloudy BKN031 OVC120 66 64     93%     30.08 30.07      
May 21 05:36 N 7 10 Mostly Cloudy SCT021 BKN120 66 64     93%     30.08        
May 21 05:03 N 7 10 Cloudy SCT009 OVC018 67 65     93%     30.07        
May 21 04:53 N 7 10 Cloudy BKN009 OVC016 67 66     97%     30.07 30.06      
May 21 03:53 NNE 6 10 Cloudy BKN008 BKN034 OVC070 69 68     96%     30.06 30.05   0  
May 21 03:05 Calm 10 Mostly Cloudy FEW005 SCT095 BKN120 69 68     96%     30.02        
May 21 02:53 NW 3 10 Mostly Cloudy FEW080 BKN110 69 68     96%     30 29.99 0    
May 21 02:30 WNW 3 6 Rain and Fog/Mist FEW008 BKN075 OVC110 70 69     97%     30   0    
May 21 02:20 WNW 6 10 Thunderstorms and Rain BKN008 BKN036 BKN048 71 70     96%   72 30.02   0    
May 21 02:01 SSW 7 8 Thunderstorms and Rain SCT007 BKN016 OVC027 71 70     96%   72 30.02   0    
May 21 01:53 SSE 5 6 Thunderstorms and Rain and Fog/Mist SCT016 BKN028 OVC075 71 70     96%   72 30.01 30 0    
May 21 01:51 SSE 3 5 Thunderstorms and Rain and Fog/Mist SCT016 BKN028 OVC075 72 70     94%   73 30.01   0    
May 21 01:33 SW 3 5 Thunderstorms and Rain and Fog/Mist SCT033 BKN060 OVC110 71 70     96%   72 30.02   0    
May 21 01:01 Calm 10 Mostly Cloudy FEW060 BKN075 BKN100 71 70     96%   72 30.01        
May 21 00:53 Calm 10 Partly Cloudy SCT075 SCT100 71 70     96%   72 30.01 30      
May 20 23:53 Calm 10 Mostly Clear FEW120 71 70     96%   72 30 29.99      
May 20 22:53 Calm 10 Clear CLR 72 70     93%   73 29.99 29.98      
May 20 21:53 Calm 10 Mostly Cloudy BKN060 73 70     90%   74 29.98 29.97      
May 20 20:53 Calm 10 Partly Cloudy SCT100 73 71     94%   74 29.96 29.96      
May 20 19:53 NNE 3 10 Clear CLR 75 72     90%   76 29.94 29.93      
May 20 18:53 ESE 5 10 Clear CLR 78 69     74%   79 29.94 29.93     0
May 20 16:53 SE 5 10 Clear CLR 79 68     69%   80 29.92 29.91      
May 20 15:53 WSW 5 10 Mostly Clear FEW014 76 69     79%   77 29.91 29.9   0  
May 20 13:53 SSE 6 10 Mostly Clear FEW110 73 69     87%   74 29.93 29.92      
May 20 12:53 E 9 10 Mostly Clear FEW100 FEW120 72 70     93%   73 29.96 29.95 0   0
May 20 11:53 SW 9 10 Mostly Cloudy SCT010 BKN050 BKN100 72 69     91%   73 30.01 30      
May 20 10:53 SSE 5 10 Partly Cloudy FEW008 SCT080 71 67     87%   72 29.99 29.98      
May 20 10:01 S 3 10 Mostly Cloudy FEW007 BKN090 69 67     93%     29.98        
May 20 09:53 3 10 Mostly Cloudy BKN090 BKN110 69 67     93%     29.98 29.97 0 0  
May 20 09:34 SSW 3 10 Mostly Cloudy FEW070 SCT095 BKN120 69 67     93%     29.98   0    
May 20 09:12 Calm 10 Light Rain FEW037 BKN080 OVC100 68 66     93%     29.97   0    
May 20 09:03 Calm 10 Light Rain FEW037 BKN080 OVC100 68 66     93%     29.98   0    
May 20 08:55 5 2 Light Rain and Fog/Mist SCT041 BKN060 OVC100 67 66     97%     29.98   0    
May 20 08:53 WNW 6 1.5 Rain and Fog/Mist SCT035 BKN047 OVC080 67 66     97%     29.97 29.96 0    
May 20 08:38   1.25 Thunderstorms and Heavy Rain and Fog/Mist SCT009 BKN032 OVC046 69 67     93%     29.99   0    
May 20 08:33   2.5 Thunderstorms and Heavy Rain and Fog/Mist SCT009 BKN017 OVC046 70 67     90%     29.98   0    
May 20 07:53 S 7 10 Cloudy BKN009 OVC014 75 73     94%   77 29.94 29.93      
May 20 07:28 SSE 6 9 Cloudy OVC008 74 72     94%   75 29.94        
May 20 06:53 ESE 7 9 Mostly Cloudy BKN011 BKN016 74 72     94%   75 29.91 29.9      
May 20 06:49 SSE 6 9 Mostly Cloudy BKN011 BKN022 73 72     94%   75 29.91        
May 20 06:21 SE 7 9 Mostly Cloudy SCT012 BKN021 73 72     96%   75 29.91        
May 20 05:53 SE 3 9 Mostly Cloudy FEW006 BKN013 73 72     96%   75 29.91 29.89      
May 20 05:34 Calm 9 Cloudy FEW007 BKN013 OVC021 74 72     94%   75 29.91        
May 20 05:14 Calm 9 Cloudy FEW009 BKN015 OVC022 74 73     97%   76 29.91        
May 20 05:01 Calm 9 Cloudy FEW008 BKN013 OVC018 74 73     97%   76 29.9        
May 20 04:53 SSE 3 9 Mostly Cloudy BKN015 74 73     97%   76 29.9 29.89      
May 20 04:46 Calm 9 Mostly Cloudy BKN017 73 72     96%   75 29.9        
May 20 03:53 SSE 5 10 Mostly Clear FEW036 FEW044 74 72     94%   75 29.89 29.87      
May 20 03:45 SE 6 10 Partly Cloudy FEW021 SCT031 SCT043 74 72     94%   75 29.88        
May 20 03:11 S 5 10 Mostly Cloudy BKN025 74 73     97%   76 29.88        
May 20 02:53 SSE 7 10 Clear CLR 74 72     94%   75 29.88 29.86      
May 20 01:53 S 6 10 Mostly Clear FEW037 75 72     90%   76 29.88 29.87      
May 20 00:53 SSE 5 10 Mostly Clear FEW035 75 72     90%   76 29.9 29.88      
May 19 23:53 SSE 5 10 Mostly Cloudy BKN038 76 72     88%   77 29.89 29.87      
May 19 22:53 SE 5 10 Clear CLR 77 72     84%   78 29.88 29.87      
May 19 21:53 SE 7 10 Clear CLR 79 73     82%   82 29.87 29.86      
May 19 20:53 E 6 10 Clear   77 73     88%   79 29.84 29.83      
May 19 19:53 SE 6 10 Clear CLR 80 73     79%   84 29.84 29.83      
May 19 18:53 SSE 7 10 Partly Cloudy FEW085 SCT100 83 73     72%   89 29.84 29.83     0
May 19 17:53 SE 5 10 Cloudy BKN090 OVC100 82 75     79%   89 29.85 29.84 0    
May 19 16:53 SSE 8 10 Mostly Cloudy FEW070 BKN095 86 74     67%   94 29.85 29.84 0    
May 19 15:53 SE 3 10 Cloudy FEW040 SCT080 OVC100 83 75     77%   90 29.87 29.85 0 0  
May 19 14:53 S 14 10 Mostly Clear FEW036 87 71     59%   93 29.88 29.87      
May 19 13:53 SSE 15 10 Mostly Cloudy FEW039 FEW050 BKN095 88 72     59%   95 29.9 29.88      
May 19 13:26 SSE 8 10 Partly Cloudy FEW030 FEW037 SCT090 87 72     61%   94 29.89        
May 19 13:16 SE 9 2 Haze FEW030 FEW039 BKN090 87 72     61%   94 29.9        
May 19 12:53 SSE 15 10 Partly Cloudy FEW033 SCT085 86 72     63%   92 29.91 29.9      
May 19 11:53 SSE 10 10 Partly Cloudy FEW031 SCT050 SCT080 85 72     65%   91 29.93 29.92      
May 19 11:28 S 10 10 Partly Cloudy FEW003 SCT027 SCT034 84 72     67%   90 29.94        
May 19 11:05 SSE 11 10 Mostly Cloudy SCT023 BKN034 83 73     72%   89 29.94        
May 19 10:53 S 9 10 Mostly Cloudy SCT021 BKN027 BKN035 82 72     72%   87 29.94 29.93      
May 19 09:53 SSE 9 10 Mostly Cloudy SCT019 BKN024 79 72     79%   82 29.94 29.93      
May 19 09:37 SSE 14 10 Mostly Cloudy SCT014 BKN022 78 72     82%   79 29.94        
May 19 09:03 SE 7 10 Cloudy BKN010 OVC017 76 72     88%   77 29.95        
May 19 08:53 SSE 8 10 Cloudy OVC009 76 72     88%   77 29.95 29.93      
May 19 08:11 ESE 7 10 Cloudy BKN009 OVC014 75 72     90%   76 29.93        
May 19 07:53 ESE 6 10 Mostly Cloudy FEW009 BKN015 74 71     91%   75 29.93 29.91      
May 19 07:11 Calm 9 Mostly Cloudy BKN018 72 70     93%   73 29.92        
May 19 06:53 Calm 9 Partly Cloudy SCT019 71 70     96%   72 29.92 29.9      
May 19 05:53 SSE 3 10 Clear CLR 70 69     97%     29.9 29.89      
May 19 04:53 SE 7 10 Clear CLR 71 69     93%   72 29.89 29.88      
May 19 03:53 ESE 3 10 Clear   71 68     90%   72 29.91 29.9      
May 19 02:53 Calm 10 Clear CLR 71 68     90%   72 29.92 29.91      
May 19 01:53 Calm 10 Clear CLR 71 69     93%   72 29.92 29.91      
May 19 00:53 SE 3 10 Clear CLR 73 69     87%   74 29.9 29.89      
May 18 23:53 Calm 10 Mostly Clear FEW055 73 70     90%   74 29.91 29.89      
May 18 22:53 Calm 10 Clear CLR 75 70     84%   76 29.89 29.88      
May 18 21:53 Calm 10 Clear CLR 77 70     79%   78 29.86 29.85      
May 18 20:53 SE 7 10 Clear CLR 78 70     76%   79 29.83 29.81      
May 18 19:53 SSE 6 10 Clear CLR 81 70     69%   84 29.85 29.83      
May 18 18:53 SE 10 10 Mostly Clear FEW049 85 70     61%   89 29.82 29.81      
May 18 17:53 SSE 10 10 Clear CLR 86 69     57%   90 29.83 29.82      
May 18 17:08 SSE 14 10 Mostly Clear FEW046 87 69     55%   91 29.85        
May 18 16:53 SSE 10 1.25 Haze FEW046 SCT070 SCT090 87 70     57%   92 29.86 29.84      
May 18 15:53 SSE 17 10 Mostly Clear FEW040 88 69     54%   92 29.87 29.85      
May 18 15:24 SSE 13 10 Mostly Clear FEW095 87 70     57%   92 29.87        
May 18 15:15 SE 16 2.5 Haze FEW040 FEW065 SCT095 87 70     57%   92 29.88        
May 18 14:53 S 11 10 Mostly Cloudy FEW040 SCT050 BKN065 86 70     59%   91 29.88 29.87      
May 18 13:53 SSE 14 10 Mostly Cloudy SCT037 SCT050 BKN070 86 70     59%   91 29.9 29.89      
May 18 12:53 SSE 11 10 Mostly Cloudy FEW035 BKN044 84 70     63%   88 29.92 29.91      
May 18 12:49 S 14 10 Mostly Cloudy FEW035 BKN044 82 70     66%   86 29.92        
May 18 12:42 SSE 10 2.5 Haze BKN041 BKN085 83 70     65%   87 29.92        
May 18 12:38 S 14 0.75 Haze SCT039 BKN046 BKN090 83 70     65%   87 29.92        
May 18 12:30 S 13 1.5 Haze FEW034 SCT043 BKN085 84 70     63%   88 29.93        
May 18 12:04 SE 15 5 Haze SCT029 BKN035 84 70     63%   88 29.93        
May 18 11:55 SSE 10 1.75 Haze BKN029 BKN035 82 70     67%   86 29.93        
May 18 11:53 SSE 13 4 Haze BKN029 BKN035 82 70     67%   86 29.93 29.92      
May 18 11:42 SE 16 10 Mostly Cloudy BKN028 83 70     65%   87 29.93        
May 18 11:18 S 11 10 Mostly Cloudy SCT025 BKN031 81 70     69%   84 29.94        
May 18 10:53 SSE 16 10 Mostly Cloudy FEW022 BKN028 81 70     69%   84 29.93 29.92      
May 18 09:53 S 10 10 Cloudy FEW018 OVC026 77 70     79%   78 29.94 29.93      
May 18 08:53 SSE 16 10 Mostly Cloudy BKN015 BKN100 76 70     82%   77 29.93 29.91      
May 18 08:40 SSE 11 10 Mostly Cloudy BKN015 BKN021 BKN100 75 70     84%   76 29.93        
May 18 07:53 SSE 10 10 Mostly Cloudy FEW014 BKN100 74 70     87%   75 29.92 29.91      
May 18 06:53 SSE 9 10 Cloudy BKN060 OVC100 72 69     91%   73 29.9 29.89      
May 18 05:53 SE 10 10 Cloudy BKN070 OVC100 72 69     91%   73 29.89 29.88      
May 18 05:04 SSE 8 10 Cloudy SCT021 BKN055 OVC080 72 69     91%   73 29.89        
May 18 04:53 SSE 8 10 Cloudy BKN020 OVC055 72 69     91%   73 29.89 29.88      
May 18 04:20 SSE 9 10 Cloudy BKN020 OVC080 72 69     91%   73 29.89        
May 18 03:53 SE 7 10 Mostly Cloudy FEW019 BKN085 72 68     87%   73 29.88 29.87      
May 18 03:38 SE 5 10 Cloudy FEW019 BKN080 OVC090 72 68     87%   73 29.88        
May 18 02:53 SSE 5 10 Cloudy BKN021 OVC085 72 68     87%   73 29.88 29.86      
May 18 02:09 SSE 7 10 Mostly Cloudy BKN022 72 67     84%   73 29.87        
May 18 01:53 SSE 5 10 Mostly Clear FEW023 72 67     84%   73 29.87 29.85      
May 18 00:53 SSE 7 10 Clear CLR 74 67     79%   75 29.86 29.85     0
May 17 23:53 SSE 10 10 Clear   75 67     76%   76 29.86 29.84      
May 17 22:53 SSE 7 10 Clear CLR 76 67     74%   77 29.85 29.83      
May 17 21:53 SSE 8 10 Partly Cloudy SCT060 SCT090 77 67     71%   78 29.84 29.83   0  
May 17 20:53 SSE 3 10 Cloudy OVC060 77 69     77%   78 29.83 29.82 0    
May 17 20:09 S 6 10 Cloudy BKN050 OVC060 78 68     71%   79 29.82   0    
May 17 18:53 SSE 5 10 Cloudy OVC060 79 69     72%   80 29.8 29.79      
May 17 17:53 S 6 10 Cloudy BKN055 OVC070 80 69     69%   83 29.8 29.79      
May 17 16:53 S 6 10 Mostly Cloudy BKN065 81 68     65%   84 29.8 29.79      
May 17 15:53 SSE 16 9 Mostly Cloudy BKN065 82 67     60%   85 29.79 29.78      
May 17 15:43 SSE 13 1.75 Haze FEW049 BKN060 82 67     60%   85 29.79        
May 17 14:53 S 11 10 Cloudy BKN055 OVC065 82 67     60%   85 29.81 29.79      
May 17 13:53 S 16 10 Cloudy BKN042 BKN049 OVC070 82 67     60%   85 29.82 29.81      
May 17 12:53 S 14 10 Cloudy FEW036 SCT046 OVC070 82 67     60%   85 29.84 29.83     0
May 17 11:53 SSE 17 10 Mostly Cloudy SCT031 BKN043 BKN070 81 67     62%   83 29.85 29.84      
May 17 10:53 SE 21 10 Mostly Clear and Windy FEW026 80 67     64%   82 29.84 29.83      
May 17 09:53 SSE 11 10 Clear CLR 76 67     74%   77 29.88 29.87   0  
May 17 08:53 SE 9 10 Clear CLR 73 66     79%   74 29.89 29.88      
May 17 07:53 ESE 7 10 Cloudy OVC070 69 64     84%     29.91 29.9 0    
May 17 06:53 ESE 5 10 Light Rain SCT019 BKN049 OVC060 68 64     87%     29.92 29.9 0   0
May 17 06:13 W 6 10 Cloudy BKN021 BKN027 OVC039 67 63     87%     29.9        
May 17 05:53 WSW 3 10 Cloudy FEW019 OVC037 66 62     87%     29.85 29.83      
May 17 04:53 SE 9 10 Cloudy OVC039 67 62     84%     29.78 29.77      
May 17 03:53 SSE 8 10 Mostly Cloudy BKN039 66 62     87%     29.79 29.77      
May 17 02:53 SSE 7 10 Clear CLR 68 61     78%     29.8 29.78      
May 17 01:53 S 8 10 Clear CLR 69 61     75%     29.81 29.8      
May 17 00:53 SSE 8 10 Clear CLR 70 62     76%     29.82 29.8      
May 16 23:53 SE 8 10 Clear CLR 71 62     73%   71 29.83 29.82      
May 16 22:53 SSE 6 10 Clear CLR 71 63     76%   71 29.83 29.82      
May 16 21:53 SSE 5 10 Clear CLR 73 64     73%   73 29.84 29.83      
May 16 20:53 SE 6 10 Clear CLR 75 64     69%   75 29.83 29.82      
May 16 19:53 ESE 7 9 Clear CLR 78 64     62%   79 29.83 29.82      
May 16 18:53 SE 7 10 Partly Cloudy SCT055 82 63     53%   83 29.84 29.83      
May 16 17:53 SSE 11 10 Clear CLR 83 61     48%   83 29.86 29.85      
May 16 16:53 SSE 16 10 Partly Cloudy SCT055 85 62     46%   86 29.87 29.85      
May 16 15:53 SSE 10 10 Partly Cloudy SCT055 84 63     49%   85 29.89 29.88      
May 16 14:53 SE 13 10 Mostly Cloudy BKN050 84 62     48%   85 29.91 29.9      
May 16 14:37 SE 14 10 Mostly Cloudy BKN050 84 61     46%   84 29.92        
May 16 14:30 S 8 2.5 Haze BKN050 84 62     48%   85 29.92        
May 16 13:53 SSE 14 10 Partly Cloudy SCT050 85 62     46%   86 29.93 29.92      
May 16 12:53 SSE 16 10 Clear CLR 84 61     46%   84 29.95 29.94      
May 16 11:53 SSE 17 10 Partly Cloudy SCT047 83 61     48%   83 29.96 29.95      
May 16 10:53 SSE 13 10 Clear CLR 81 63     54%   82 29.97 29.96      
May 16 09:53 SSW 11 10 Clear CLR 75 62     64%   75 29.98 29.97      
May 16 08:53 SSW 9 10 Clear CLR 72 64     76%   72 29.98 29.97      
May 16 07:53 SSE 6 10 Clear CLR 67 63     87%     29.97 29.96      
May 16 06:53 Calm 7 Clear CLR 61 60     97%     29.96 29.95      
May 16 05:53 Calm 10 Clear CLR 61 59     93%     29.95 29.94      
May 16 04:53 Calm 10 Clear CLR 61 59     93%     29.94 29.93      
May 16 03:53 Calm 10 Clear CLR 61 59     93%     29.94 29.93      
May 16 02:53 Calm 10 Clear CLR 62 60     93%     29.93 29.92      
May 16 01:53 S 3 10 Clear CLR 65 61     87%     29.93 29.92      
May 16 00:53 Calm 10 Clear CLR 66 62     87%     29.93 29.92      
May 15 23:53 SE 5 10 Clear CLR 67 62     84%     29.93 29.92      
May 15 22:53 Calm 10 Clear CLR 67 64     90%     29.94 29.93      
May 15 21:53 Calm 10 Clear CLR 68 64     87%     29.94 29.93      
May 15 20:53 Calm 10 Clear CLR 71 63     76%   71 29.93 29.92      
May 15 19:53 Calm 10 Clear CLR 76 64     67%   76 29.92 29.91      
May 15 18:53 S 6 10 Clear   83 57     41%   82 29.92 29.91      
May 15 18:32 SE 9 10 Clear CLR 84 56     38%   83 29.92        
May 15 18:22 SE 8 2 Haze CLR 84 57     40%   83 29.92        
May 15 17:53 SE 10 10 Clear CLR 84 57     40%   83 29.92 29.91      
May 15 16:53 S 9 10 Clear CLR 85 57     39%   84 29.93 29.92      
May 15 15:53 SSW 8 10 Clear CLR 84 60     44%   84 29.94 29.93      
May 15 14:53 S 10 10 Mostly Clear FEW050 84 61     46%   84 29.96 29.95      
May 15 13:53 S 6 10 Mostly Clear FEW048 83 62     49%   84 29.98 29.97      
May 15 12:53 SE 10 10 Partly Cloudy SCT047 82 60     47%   82 30 29.99      
May 15 11:53 SSW 7 10 Mostly Cloudy BKN043 79 60     52%   79 30.01 30      
May 15 10:53 SSE 7 10 Clear CLR 79 63     58%   79 30.02 30.01      
May 15 09:53 W 6 10 Clear CLR 76 64     67%   76 30.02 30.01      
May 15 08:53 S 3 10 Clear CLR 70 64     81%     30 29.99      
May 15 07:53 Calm 10 Clear CLR 64 61     90%     29.99 29.98      
May 15 06:53 Calm 10 Partly Cloudy SCT048 59 57     93%     29.99 29.98      
May 15 05:53 Calm 10 Clear CLR 58 56     93%     29.97 29.96      
May 15 04:53 Calm 10 Clear CLR 57 57     100%     29.97 29.96      
May 15 03:53 Calm 10 Clear CLR 58 57     97%     29.96 29.96      
May 15 02:53 Calm 10 Clear CLR 59 58     96%     29.96 29.95      
May 15 01:53 Calm 10 Clear CLR 60 59     96%     29.96 29.95      
May 14 23:53 Calm 9 Clear CLR 62 60     93%     29.95 29.94      
May 14 22:53 Calm 10 Clear CLR 64 61     90%     29.95 29.94      
May 14 21:53 Calm 10 Clear CLR 64 62     93%     29.95 29.94      
May 14 19:53 Calm 10 Clear CLR 73 62     68%   73 29.92 29.91      
May 14 18:53 SW 3 10 Clear CLR 79 56     45%   79 29.92 29.91      
May 14 17:53 7 10 Clear CLR 81 57     44%   81 29.93 29.92      
May 14 16:53 Calm 10 Clear CLR 80 56     44%   80 29.93 29.92      
May 14 15:53 3 10 Clear CLR 81 56     42%   81 29.95 29.94      
May 14 14:53 Calm 10 Clear CLR 81 57     44%   81 29.97 29.96      
May 14 13:53 Calm 10 Clear CLR 78 55     45%   78 29.99 29.98      
May 14 12:53 3 10 Clear CLR 77 56     48%   77 30 29.99      
May 14 11:53 SW 6 10 Clear CLR 75 54     48%   74 30.01 30      
May 14 10:53 SSE 5 10 Clear CLR 74 55     52%   73 30.02 30.01      
May 14 09:53 SE 5 10 Clear CLR 73 54     51%   72 30.03 30.02      
May 14 08:53 Calm 10 Clear CLR 67 59     76%     30.03 30.02      
May 14 07:53 Calm 10 Clear CLR 61 58     90%     30.02 30.02      
May 14 06:53 Calm 10 Clear CLR 54 53     97%     30 30      
May 14 05:53 Calm 10 Clear CLR 53 52     96%     29.99 29.98      
May 14 04:53 Calm 10 Clear CLR 53 52     96%     29.97 29.96      
May 14 03:53 Calm 10 Clear CLR 53 52     96%     29.96 29.95      
May 14 02:53 Calm 10 Clear CLR 55 54     96%     29.94 29.93      
May 14 01:53 Calm 10 Clear CLR 56 55     97%     29.94 29.93      
May 14 00:53 Calm 10 Clear CLR 56 55     97%     29.94 29.93      
May 13 23:53 Calm 10 Clear CLR 58 56     93%     29.94 29.93      
May 13 22:53 Calm 10 Clear CLR 60 57     90%     29.93 29.92      
May 13 21:53 Calm 10 Clear CLR 61 59     93%     29.92 29.91      
May 13 20:53 Calm 10 Clear CLR 64 60     87%     29.91 29.91      
May 13 19:53 N 3 10 Clear CLR 67 62     84%     29.91 29.9      
May 13 18:53 N 5 10 Clear CLR 75 54     48%   74 29.9 29.89